La Coruna Airport, Spain

11:21 AM CET on January 16, 2018 (GMT +0100)
A Coruna

Weather History for LECO - September, 2013

Change the Weather History Date:

Thursday, September 26, 2013

  Actual Average Record
Temperature  
Mean Temperature 67 °F -  
Max Temperature 77 °F 66 °F 80 °F (2004)
Min Temperature 57 °F 52 °F 44 °F (2007)
Cooling Degree Days 2    
Growing Degree Days 17 (Base 50)    
Moisture  
Dew Point 60 °F    
Average Humidity 76    
Maximum Humidity 100    
Minimum Humidity 57    
Precipitation  
Precipitation 0.00 in - - ()
Sea Level Pressure  
Sea Level Pressure 29.80 in    
Wind  
Wind Speed 3 mph ()    
Max Wind Speed 13 mph    
Max Gust Speed 21 mph    
Visibility 6.2 miles    
Events Fog    
Averages and records for this station are not official NWS values.
T = Trace of Precipitation, MM = Missing Value Source: Averaged Metar Reports

Daily Weather History Graph

Daily Weather History Graph

Search for Another Location

Airport or City:

Trip Planner

Search our weather history database for the weather conditions in past years. The results will help you decide how hot, cold, wet, or windy it might be!

Date:

Astronomy

Sep. 26, 2013 Rise Set
Actual Time 8:25 AM CEST 8:23 PM CEST
Civil Twilight 7:56 AM CEST 8:51 PM CEST
Nautical Twilight 7:23 AM CEST 9:25 PM CEST
Astronomical Twilight 6:49 AM CEST 9:58 PM CEST
Moon 12:11 AM CEST (9/26) 3:15 PM CEST (9/26)
Length of Visible Light 12h 55m
Length of Day
11h 58m
Waning Gibbous, 57% of the Moon is Illuminated
Sep 26
Waning Gibbous
Sep 27
Last Quarter
Oct 5
New
Oct 12
First Quarter
Oct 19
Full

Hourly Weather History & Observations

Time (CEST) Temp. Dew Point Humidity Pressure Visibility Wind Dir Wind Speed Gust Speed Precip Events Conditions
12:00 AM 64.4 °F 60.8 °F 88% 29.89 in 6.2 mi SE 4.6 mph - N/A   Scattered Clouds
12:30 AM 62.6 °F 59.0 °F 88% 29.86 in 6.2 mi SSE 4.6 mph - N/A   Scattered Clouds
1:00 AM 64.4 °F 60.8 °F 88% 29.86 in 6.2 mi SE 4.6 mph - N/A   Scattered Clouds
5:30 AM 60.8 °F 59.0 °F 94% 29.83 in 6.2 mi Variable 1.2 mph - N/A   Partly Cloudy
6:00 AM 60.8 °F 59.0 °F 94% 29.83 in 6.2 mi Calm Calm - N/A   Partly Cloudy
6:30 AM 60.8 °F 59.0 °F 94% 29.83 in 6.2 mi Calm Calm - N/A   Partly Cloudy
7:00 AM 60.8 °F 59.0 °F 94% 29.83 in 6.2 mi Calm Calm - N/A   Partly Cloudy
7:30 AM 59.0 °F 57.2 °F 94% 29.83 in 5.6 mi SSE 4.6 mph - N/A   Partly Cloudy
8:00 AM 59.0 °F 57.2 °F 94% 29.83 in 6.2 mi SSE 4.6 mph - N/A Fog Unknown
8:30 AM 57.2 °F 57.2 °F 100% 29.80 in 6.2 mi Calm Calm - N/A Fog Partly Cloudy
9:00 AM 59.0 °F 59.0 °F 100% 29.80 in 6.2 mi SSE 3.5 mph - N/A Fog Partly Cloudy
9:30 AM 62.6 °F 60.8 °F 94% 29.83 in - SSE 5.8 mph - N/A   Clear
10:00 AM 62.6 °F 59.0 °F 88% 29.83 in - Variable 1.2 mph - N/A   Clear
10:30 AM 64.4 °F 60.8 °F 88% 29.83 in - Variable 2.3 mph - N/A   Clear
11:00 AM 66.2 °F 60.8 °F 83% 29.83 in - Variable 1.2 mph - N/A   Clear
11:30 AM 68.0 °F 62.6 °F 83% 29.83 in 6.2 mi Calm Calm - N/A   Mostly Cloudy
12:00 PM 71.6 °F 62.6 °F 73% 29.83 in 6.2 mi SSW 5.8 mph - N/A   Mostly Cloudy
12:30 PM 71.6 °F 60.8 °F 69% 29.83 in 6.2 mi SSW 9.2 mph - N/A   Mostly Cloudy
1:00 PM 71.6 °F 60.8 °F 69% 29.83 in 6.2 mi SSW 12.7 mph - N/A   Mostly Cloudy
1:30 PM 73.4 °F 60.8 °F 65% 29.83 in 6.2 mi SSW 8.1 mph - N/A   Scattered Clouds
2:00 PM 73.4 °F 60.8 °F 65% 29.83 in 6.2 mi South 9.2 mph 20.7 mph N/A   Scattered Clouds
2:30 PM 75.2 °F 60.8 °F 61% 29.80 in 6.2 mi South 6.9 mph - N/A   Partly Cloudy
3:00 PM 75.2 °F 62.6 °F 65% 29.80 in 6.2 mi Variable 2.3 mph - N/A   Mostly Cloudy
3:30 PM 77.0 °F 60.8 °F 57% 29.77 in 6.2 mi South 4.6 mph - N/A   Mostly Cloudy
4:00 PM 75.2 °F 60.8 °F 61% 29.77 in 6.2 mi SSW 3.5 mph - N/A   Partly Cloudy
4:30 PM 77.0 °F 60.8 °F 57% 29.77 in 6.2 mi Variable 1.2 mph - N/A   Partly Cloudy
5:00 PM 73.4 °F 62.6 °F 69% 29.77 in 6.2 mi North 6.9 mph - N/A   Partly Cloudy
5:30 PM 71.6 °F 60.8 °F 69% 29.77 in 6.2 mi NNE 8.1 mph - N/A   Partly Cloudy
6:00 PM 71.6 °F 60.8 °F 69% 29.77 in 6.2 mi NNE 6.9 mph - N/A   Partly Cloudy
6:30 PM 71.6 °F 60.8 °F 69% 29.77 in 6.2 mi North 4.6 mph - N/A   Partly Cloudy
7:00 PM 69.8 °F 60.8 °F 73% 29.77 in 6.2 mi Variable 1.2 mph - N/A   Partly Cloudy
7:30 PM 73.4 °F 59.0 °F 61% 29.77 in 6.2 mi Variable 2.3 mph - N/A   Partly Cloudy
8:00 PM 73.4 °F 57.2 °F 57% 29.77 in 6.2 mi Calm Calm - N/A   Partly Cloudy
8:30 PM 69.8 °F 59.0 °F 68% 29.77 in 6.2 mi ESE 3.5 mph - N/A   Partly Cloudy
9:00 PM 69.8 °F 59.0 °F 68% 29.77 in 6.2 mi Variable 1.2 mph - N/A   Partly Cloudy
9:30 PM 69.8 °F 57.2 °F 64% 29.77 in 6.2 mi Calm Calm - N/A   Partly Cloudy
10:00 PM 68.0 °F 59.0 °F 73% 29.77 in 6.2 mi Variable 2.3 mph - N/A   Partly Cloudy
10:30 PM 68.0 °F 57.2 °F 68% 29.74 in 6.2 mi SE 8.1 mph - N/A   Partly Cloudy
11:00 PM 69.8 °F 57.2 °F 64% 29.74 in 6.2 mi SSE 8.1 mph - N/A   Partly Cloudy
11:30 PM 69.8 °F 57.2 °F 64% 29.74 in 6.2 mi SSE 9.2 mph - N/A   Partly Cloudy